Location: Newark
(35.0167°N, 135.7667°E)
Time: 04:44:46
(UTC+00:00)

Hubble Space Telescope - Visible Passes

Search period start: 21 October 2019 00:00
Search period end: 31 October 2019 00:00
Orbit: 536 x 540 km, 28.5° (Epoch: 20 October)

Date Brightness Start Highest point End Pass type
(mag) Time Alt. Az. Time Alt. Az. Time Alt. Az.
28 Oct 3.4 19:09:54 11° SSE 19:10:37 11° SSE 19:11:54 10° SE visible
29 Oct 3.3 19:00:15 14° SSE 19:00:15 14° SSE 19:02:04 10° SE visible
29 Oct 2.4 20:37:01 10° SW 20:40:34 28° S 20:44:07 10° ESE visible
30 Oct 3.4 18:50:31 15° SE 18:50:31 15° SE 18:51:53 10° ESE visible
30 Oct 2.2 20:26:17 10° SW 20:29:56 30° S 20:33:34 10° ESE visible
